Flag for Germany Weather past 2 weeks in Solingen, North Rhine-Westphalia, Germany

Now
66 °F

Passing clouds.


Feels Like: 66 °F
Forecast: 51 / 64 °F
Wind: 13 mph from West

Location: Duesseldorf

Current Time: Sep 1, 2015 at 4:17:10 AM

Latest Report: Sep 1, 2015 at 3:20 AM


Visibility: N/A

Pressure: 29.83 "Hg

Humidity: 78%

Dew point: 59 °F

Location of SolingenLocation

Historic Weather in Solingen — Graph

°F

Solingen temperature yesterday

Maximum temperature yesterday: 90 °F (at 3:20 PM)
Minimum temperature yesterday: 68 °F (at 5:50 AM)
Average temperature yesterday: 77 °F

Past Weeks' High & Low Weather Summary

 TemperatureHumidityPressure
High90 °F (Aug 30, 3:20 PM)100% (Aug 17, 6:50 AM)30.24 "Hg (Aug 17, 6:50 AM)
Low50 °F (Aug 19, 4:50 AM)30% (Aug 22, 5:20 PM)29.50 "Hg (Aug 24, 4:50 PM)
Average67 °F71%29.96 "Hg
* Reported Aug 17 3:20 AM — Sep 1 3:20 AM, Solingen, Weather by CustomWeather, © 2015

Note: Actual official high and low records may vary slightly from our data, if they occured in-between our weather recording intervals... More about our weather records

Advertising

Solingen weather history for previous 24 hours

 ConditionsComfort  
Time TempWeatherWind HumidityBarometerVisibility
3:20 AM
Tue, Sep 1
66 °FPassing clouds.13 mph78%29.83 "HgN/A
2:50 AM68 °FPassing clouds.12 mph83%29.83 "HgN/A
2:20 AM68 °FPassing clouds.12 mph83%29.83 "HgN/A
1:50 AM70 °FPassing clouds.10 mph83%29.83 "HgN/A
1:20 AM70 °FPassing clouds.12 mph83%29.83 "HgN/A
12:50 AM70 °FPassing clouds.10 mph83%29.83 "HgN/A
12:20 AM70 °FPassing clouds.10 mph83%29.83 "HgN/A
11:20 PM
Mon, Aug 31
70 °FClear.9 mph83%29.83 "Hg10 mi
10:50 PM70 °FClear.8 mph83%29.83 "Hg10 mi
10:20 PM70 °FPassing clouds.9 mph83%29.83 "HgN/A
9:50 PM72 °FPassing clouds.7 mph78%29.83 "HgN/A
9:20 PM72 °FSunny.7 mph78%29.80 "Hg10 mi
8:50 PM73 °FSunny.12 mph74%29.80 "Hg10 mi
8:20 PM75 °FSunny.15 mph65%29.80 "Hg10 mi
7:50 PM77 °FScattered clouds.16 mph61%29.80 "HgN/A
7:20 PM81 °FScattered clouds.20 mph58%29.77 "HgN/A
6:50 PM84 °FSunny.14 mph45%29.77 "Hg10 mi
6:20 PM86 °FSunny.15 mph38%29.74 "Hg10 mi
5:50 PM88 °FSunny.18 mph31%29.74 "Hg10 mi
5:20 PM88 °FSunny.21 mph31%29.74 "Hg10 mi
4:50 PM88 °FSunny.21 mph31%29.74 "Hg10 mi
4:20 PM88 °FSunny.16 mph38%29.77 "Hg10 mi
3:50 PM90 °FSunny.17 mph33%29.77 "Hg10 mi
3:20 PM90 °FSunny.13 mph41%29.77 "Hg10 mi
2:50 PM88 °FSunny.14 mph46%29.77 "Hg10 mi
2:20 PM88 °FSunny.13 mph40%29.77 "Hg10 mi
1:50 PM88 °FSunny.13 mph40%29.80 "Hg10 mi
1:20 PM86 °FSunny.12 mph46%29.80 "Hg10 mi
12:50 PM84 °FSunny.13 mph48%29.80 "Hg10 mi
12:20 PM82 °FSunny.12 mph48%29.83 "Hg10 mi
11:50 AM82 °FSunny.10 mph51%29.83 "Hg10 mi
11:20 AM81 °FSunny.10 mph58%29.83 "Hg10 mi
10:50 AM81 °FSunny.10 mph58%29.83 "Hg10 mi
10:20 AM79 °FSunny.10 mph58%29.86 "Hg10 mi
9:50 AM77 °FSunny.13 mph69%29.86 "Hg10 mi
9:20 AM75 °FSunny.12 mph74%29.86 "Hg10 mi
8:50 AM73 °FSunny.9 mph83%29.86 "Hg10 mi
8:20 AM70 °FSunny.3 mph88%29.86 "Hg10 mi
7:50 AM68 °FSunny.5 mph88%29.86 "Hg10 mi
7:20 AM68 °FClear.3 mph88%29.89 "Hg10 mi
6:50 AM68 °FClear.3 mph88%29.89 "Hg10 mi
6:20 AM70 °FClear.10 mph83%29.89 "Hg10 mi
5:50 AM68 °FClear.9 mph88%29.89 "Hg10 mi
5:20 AM70 °FClear.9 mph83%29.92 "Hg10 mi
4:50 AM70 °FClear.12 mph78%29.92 "Hg10 mi
4:20 AM70 °FPassing clouds.7 mph78%29.92 "HgN/A
Weather by CustomWeather, © 2015

See weather overviewHow to use our weather pages